Location: New Plymouth
(39.0670°S, 174.0830°E)
Time: 10:08:32
(UTC+12:00)

ISS - Pass Details

Date: 21 May 2021
Orbit: 417 x 422 km, 51.6° (Epoch: 17 June)

Event Time Altitude Azimuth Distance (km) Brightness Sun altitude
Rises 06:25:15 0° 325° (NW) 2,373 -0.1 -11.6°
Reaches altitude 10° 06:27:24 10° 332° (NNW) 1,515 -1.0 -11.2°
Maximum altitude 06:30:39 43° 44° (NE) 616 -2.4 -10.6°
Drops below altitude 10° 06:33:56 10° 116° (ESE) 1,530 -0.2 -10.0°
Sets 06:36:06 0° 123° (ESE) 2,402 0.7 -9.6°
